Weather Roundup
Issued by NWS Chicago, IL

Home | Current Version | Previous Version | Text Only | Print | Product List | Glossary On
Versions: 1 2 3 4 5 6 7 8 9 10 11 12 13 14 15 16 17 18 19 20 21 22 23 24 25 26 27 28 29 30 31 32 33 34 35 36 37 38 39 40 41 42 43 44 45 46 47 48 49 50
000
NZUS59 KLOT 260004
HRRLOT

CHICAGO AREA WEATHER ROUNDUP
NATIONAL WEATHER SERVICE CHICAGO/ROMEOVILLE IL
700 PM CDT THU AUG 25 2016

NOTE: "FAIR" INDICATES FEW OR NO CLOUDS BELOW 12,000 FEET WITH NO
SIGNIFICANT WEATHER AND/OR OBSTRUCTIONS TO VISIBILITY.

* THESE STATIONS ARE NOT UNDER NWS QUALITY CONTROL. THEY ALSO MAY NOT
  REPORT WEATHER SUCH AS PRECIPITATION OR FOG.

ILZ005-006-012>014-019>023-260100-
NORTHEAST ILLINOIS

CITY           SKY/WX    TMP DP  RH WIND       PRES   REMARKS
OHARE          CLOUDY    78  64  61 NW9       30.03S HX  80
6HR MIN TEMP:  77; 6HR MAX TEMP:  85;

MIDWAY         CLOUDY    81  64  56 NW8       30.02S HX  82
6HR MIN TEMP:  79; 6HR MAX TEMP:  85;

AURORA         CLOUDY    76  67  73 NW3       30.04S
6HR MIN TEMP:  76; 6HR MAX TEMP:  83;

LANSING*       CLOUDY    79  69  72 NW5       30.02R HX  81
JOLIET*        MOCLDY    79  67  67 N5        30.04R HX  81
WAUKEGAN       CLOUDY    76  65  68 CALM      30.03S
6HR MIN TEMP:  76; 6HR MAX TEMP:  82;

DUPAGE AIRPORT CLOUDY    76  63  64 NW7       30.03S
6HR MIN TEMP:  76; 6HR MAX TEMP:  83;

WHEELING       CLOUDY    77  62  59 NW6       30.04S
6HR MIN TEMP:  77; 6HR MAX TEMP:  84;

KANKAKEE*      CLOUDY    74  73  94 CALM      30.04F
MORRIS*        PTCLDY    76  68  75 CALM      30.03R
LEWIS AIRPORT* CLEAR     76  68  75 NW5       30.04R
NORTHERLY ISL    N/A     73  68  84 CALM        N/A
$$

WIZ051-052-058>065-066-070>072-260100-
SOUTHEAST WISCONSIN

CITY           SKY/WX    TMP DP  RH WIND       PRES   REMARKS
MILWAUKEE      CLOUDY    80  57  45 W7        30.02F HX  80
6HR MIN TEMP:  79; 6HR MAX TEMP:  84;

KENOSHA*       CLOUDY    73  63  70 W6        30.04S
RACINE*        CLOUDY    76  62  62 W3        30.04S
BURLINGTON     PTCLDY    73  60  63 CALM      30.04S
WAUKESHA       CLEAR     73  61  64 W7        30.05S
$$

INZ001>003-010>013-019-020-260100-
NORTHWEST INDIANA

CITY           SKY/WX    TMP DP  RH WIND       PRES   REMARKS
GARY*          MOCLDY    79  73  83 CALM      30.03R HX  82
MICHIGAN CITY* NOT AVBL
RENSSELAER*    NOT AVBL
VALPARAISO     MOCLDY    77  72  84 N3        30.03S
$$

LMZ740>746-260100-
SOUTHERN LAKE MICHIGAN

STATION/POSITION TIME  SKY/WX   TEMP WIND        PRES    VSBY
                                AIR  DIR/SP/G
                 (UTC)          (F)  (DEG/KT/KT) (MB)    (MI)
HARRISON CRIB    2300            74   60/  3/  3   N/A
BURNHAM HARBOR   0000            73   CALM  /  3   N/A
CALUMET HARBOR   2300            74              1016.1S
BURNS HARBOR     2300            75   60/  7/  8 1016.9
MICHIGAN CITY    2300            74   30/  5/  6   N/A
$$

ABBREVIATIONS USED IN REMARKS
   TC - TEMPERATURE IN CELSIUS
  WCI - WIND CHILL INDEX
   HX - HEAT INDEX
  VSB - VISIBILITY
$$




USA.gov is the U.S. government's official web portal to all federal, state and local government web resources and services.